ECHOSTAR 25

基本信息
目录编号:
68126
目录名称:
ECHOSTAR 25
国际标识:
2026-045A
轨道中心:
EARTH
卫星名称:
ECHOSTAR 25
卫星全名:
ECHOSTAR 25
卫星状态:
在轨
发射日期:
--
国别 :
--
星等 :
--
轨道信息
数据来源 国际轨道数据
星历时间: 2026-03-11T17:52:45+0800
2天前
查看轨道信息
半长轴: 17518.138km
偏心率: 0.6209398
轨道倾角: 26.899°
近地点辐角 175.374°
升交点赤经 70.399°
平近点角 195.587°
近地点: 262.291km
远地点: 22017.711km
周期: 384.584分钟
每日圈数: 3.744302
详细信息
使用方式:
暂无
2D轨道图
3D轨道图
轨道高度分析图
轨道倾角分析图
轨道综合分析图
查看轨道综合分析图